owner,sensor,date,latitude,longitude,vertical_datum,mass_concentration_of_oxygen_in_sea_water,qcFlag 
SCCF RECON,ioos:station:SCCF:13:1,2009-03-01T00:00:00Z,26.5255,-82.0032,2.35,7.1,1111122 
SCCF RECON,ioos:station:SCCF:13:1,2009-03-01T01:00:00Z,26.5255,-82.0032,2.32,6.85,1111122 
SCCF RECON,ioos:station:SCCF:13:1,2009-03-01T02:00:00Z,26.5255,-82.0032,2.3,6.91,1111122 
SCCF RECON,ioos:station:SCCF:13:1,2009-03-01T03:00:00Z,26.5255,-82.0032,2.25,6.91,1111122 
SCCF RECON,ioos:station:SCCF:13:1,2009-03-01T04:00:00Z,26.5255,-82.0032,2.21,6.91,1111122 
SCCF RECON,ioos:station:SCCF:13:1,2009-03-01T05:00:00Z,26.5255,-82.0032,2.19,6.87,1111122 
SCCF RECON,ioos:station:SCCF:13:1,2009-03-01T06:00:00Z,26.5255,-82.0032,2.19,6.73,1111122 
SCCF RECON,ioos:station:SCCF:13:1,2009-03-01T07:00:00Z,26.5255,-82.0032,2.19,6.42,1111122 
SCCF RECON,ioos:station:SCCF:13:1,2009-03-01T08:00:00Z,26.5255,-82.0032,2.21,6.52,1111122 
SCCF RECON,ioos:station:SCCF:13:1,2009-03-01T09:00:00Z,26.5255,-82.0032,2.22,6.46,1111122 
SCCF RECON,ioos:station:SCCF:13:1,2009-03-01T10:00:00Z,26.5255,-82.0032,2.24,6.38,1111122 
SCCF RECON,ioos:station:SCCF:13:1,2009-03-01T11:00:00Z,26.5255,-82.0032,2.24,6.38,1111122 
SCCF RECON,ioos:station:SCCF:13:1,2009-03-01T12:00:00Z,26.5255,-82.0032,2.24,6.42,1111122 
SCCF RECON,ioos:station:SCCF:13:1,2009-03-01T13:00:00Z,26.5255,-82.0032,2.24,6.3,1111122 
SCCF RECON,ioos:station:SCCF:13:1,2009-03-01T14:00:00Z,26.5255,-82.0032,2.238,6.26,1111122 
SCCF RECON,ioos:station:SCCF:13:1,2009-03-01T15:00:00Z,26.5255,-82.0032,2.23,6.36,1111122 
SCCF RECON,ioos:station:SCCF:13:1,2009-03-01T16:00:00Z,26.5255,-82.0032,2.24,6.4,1111122 
SCCF RECON,ioos:station:SCCF:13:1,2009-03-01T17:00:00Z,26.5255,-82.0032,2.25,6.49,1111122 
SCCF RECON,ioos:station:SCCF:13:1,2009-03-01T18:00:00Z,26.5255,-82.0032,2.28,6.53,1111122 
SCCF RECON,ioos:station:SCCF:13:1,2009-03-01T19:00:00Z,26.5255,-82.0032,2.29,6.59,1111122 
SCCF RECON,ioos:station:SCCF:13:1,2009-03-01T20:00:00Z,26.5255,-82.0032,2.29,6.68,1111122 
SCCF RECON,ioos:station:SCCF:13:1,2009-03-01T21:00:00Z,26.5255,-82.0032,2.3,6.76,1111122 
SCCF RECON,ioos:station:SCCF:13:1,2009-03-01T22:00:00Z,26.5255,-82.0032,2.3,6.96,1111122 
SCCF RECON,ioos:station:SCCF:13:1,2009-03-01T23:00:00Z,26.5255,-82.0032,2.31,6.75,1111122 
SCCF RECON,ioos:station:SCCF:13:1,2009-03-02T00:00:00Z,26.5255,-82.0032,2.3,6.62,1111122 
SCCF RECON,ioos:station:SCCF:13:1,2009-03-02T01:00:00Z,26.5255,-82.0032,2.28,6.57,1111122 
SCCF RECON,ioos:station:SCCF:13:1,2009-03-02T02:00:00Z,26.5255,-82.0032,2.25,6.54,1111122 
SCCF RECON,ioos:station:SCCF:13:1,2009-03-02T03:00:00Z,26.5255,-82.0032,2.21,6.6,1111122 
SCCF RECON,ioos:station:SCCF:13:1,2009-03-02T04:00:00Z,26.5255,-82.0032,2.16,6.6,1111122 
SCCF RECON,ioos:station:SCCF:13:1,2009-03-02T05:00:00Z,26.5255,-82.0032,2.13,6.62,1111122 
SCCF RECON,ioos:station:SCCF:13:1,2009-03-02T06:00:00Z,26.5255,-82.0032,2.1,6.63,1111122 
SCCF RECON,ioos:station:SCCF:13:1,2009-03-02T07:00:00Z,26.5255,-82.0032,2.08,6.64,1111122 
SCCF RECON,ioos:station:SCCF:13:1,2009-03-02T08:00:00Z,26.5255,-82.0032,2.07,6.65,1111122 
SCCF RECON,ioos:station:SCCF:13:1,2009-03-02T09:00:00Z,26.5255,-82.0032,2.06,6.66,1111122 
SCCF RECON,ioos:station:SCCF:13:1,2009-03-02T10:00:00Z,26.5255,-82.0032,2.04,6.66,1111122 
SCCF RECON,ioos:station:SCCF:13:1,2009-03-02T11:00:00Z,26.5255,-82.0032,2.03,6.66,1111122 
SCCF RECON,ioos:station:SCCF:13:1,2009-03-02T12:00:00Z,26.5255,-82.0032,2.02,6.61,1111122 
SCCF RECON,ioos:station:SCCF:13:1,2009-03-02T13:00:00Z,26.5255,-82.0032,2.01,6.64,1111122 
SCCF RECON,ioos:station:SCCF:13:1,2009-03-02T14:00:00Z,26.5255,-82.0032,2.0,6.74,1111122 
SCCF RECON,ioos:station:SCCF:13:1,2009-03-02T15:00:00Z,26.5255,-82.0032,1.99,6.92,1111122 
SCCF RECON,ioos:station:SCCF:13:1,2009-03-02T16:00:00Z,26.5255,-82.0032,2.0,7.08,1111122 
SCCF RECON,ioos:station:SCCF:13:1,2009-03-02T17:00:00Z,26.5255,-82.0032,2.0,7.09,1111122 
SCCF RECON,ioos:station:SCCF:13:1,2009-03-02T18:00:00Z,26.5255,-82.0032,2.03,6.98,1111122 
SCCF RECON,ioos:station:SCCF:13:1,2009-03-02T19:00:00Z,26.5255,-82.0032,2.04,6.95,1111122 
SCCF RECON,ioos:station:SCCF:13:1,2009-03-02T20:00:00Z,26.5255,-82.0032,2.06,7.02,1111122 
SCCF RECON,ioos:station:SCCF:13:1,2009-03-02T21:00:00Z,26.5255,-82.0032,2.1,7.03,1111122 
SCCF RECON,ioos:station:SCCF:13:1,2009-03-02T22:00:00Z,26.5255,-82.0032,2.13,7.13,1111122 
SCCF RECON,ioos:station:SCCF:13:1,2009-03-02T23:00:00Z,26.5255,-82.0032,2.15,7.12,1111122 
SCCF RECON,ioos:station:SCCF:13:1,2009-03-03T00:00:00Z,26.5255,-82.0032,2.16,7.0,1111122 
SCCF RECON,ioos:station:SCCF:13:1,2009-03-03T01:00:00Z,26.5255,-82.0032,2.16,6.94,1111122 
SCCF RECON,ioos:station:SCCF:13:1,2009-03-03T02:00:00Z,26.5255,-82.0032,2.15,6.87,1111122 
SCCF RECON,ioos:station:SCCF:13:1,2009-03-03T03:00:00Z,26.5255,-82.0032,2.13,6.8,1111122 
SCCF RECON,ioos:station:SCCF:13:1,2009-03-03T04:00:00Z,26.5255,-82.0032,2.11,6.94,1111122 
SCCF RECON,ioos:station:SCCF:13:1,2009-03-03T05:00:00Z,26.5255,-82.0032,2.09,7.04,1111122 
SCCF RECON,ioos:station:SCCF:13:1,2009-03-03T06:00:00Z,26.5255,-82.0032,2.07,7.14,1111122 
SCCF RECON,ioos:station:SCCF:13:1,2009-03-03T07:00:00Z,26.5255,-82.0032,2.06,7.17,1111122 
SCCF RECON,ioos:station:SCCF:13:1,2009-03-03T08:00:00Z,26.5255,-82.0032,2.05,7.12,1111122 
SCCF RECON,ioos:station:SCCF:13:1,2009-03-03T09:00:00Z,26.5255,-82.0032,2.041,7.15,1111122 
SCCF RECON,ioos:station:SCCF:13:1,2009-03-03T10:00:00Z,26.5255,-82.0032,2.046,6.94,1111122 
SCCF RECON,ioos:station:SCCF:13:1,2009-03-03T11:00:00Z,26.5255,-82.0032,2.05,6.57,1111122 
SCCF RECON,ioos:station:SCCF:13:1,2009-03-03T12:00:00Z,26.5255,-82.0032,2.05,6.66,1111122 
SCCF RECON,ioos:station:SCCF:13:1,2009-03-03T13:00:00Z,26.5255,-82.0032,2.05,6.66,1111122 
SCCF RECON,ioos:station:SCCF:13:1,2009-03-03T14:00:00Z,26.5255,-82.0032,2.05,6.68,1111122 
SCCF RECON,ioos:station:SCCF:13:1,2009-03-03T15:00:00Z,26.5255,-82.0032,2.05,6.75,1111122 
SCCF RECON,ioos:station:SCCF:13:1,2009-03-03T16:00:00Z,26.5255,-82.0032,2.05,7.09,1111122 
SCCF RECON,ioos:station:SCCF:13:1,2009-03-03T17:00:00Z,26.5255,-82.0032,2.06,6.68,1111122 
SCCF RECON,ioos:station:SCCF:13:1,2009-03-03T18:00:00Z,26.5255,-82.0032,2.09,7.2,1111122 
SCCF RECON,ioos:station:SCCF:13:1,2009-03-03T19:00:00Z,26.5255,-82.0032,2.11,7.19,1111122 
SCCF RECON,ioos:station:SCCF:13:1,2009-03-03T20:00:00Z,26.5255,-82.0032,2.13,7.1,1111122 
SCCF RECON,ioos:station:SCCF:13:1,2009-03-03T21:00:00Z,26.5255,-82.0032,2.15,7.17,1111122 
SCCF RECON,ioos:station:SCCF:13:1,2009-03-03T22:00:00Z,26.5255,-82.0032,2.17,7.38,1111122 
SCCF RECON,ioos:station:SCCF:13:1,2009-03-03T23:00:00Z,26.5255,-82.0032,2.19,7.37,1111122 
SCCF RECON,ioos:station:SCCF:13:1,2009-03-04T00:00:00Z,26.5255,-82.0032,2.21,7.22,1111122 
SCCF RECON,ioos:station:SCCF:13:1,2009-03-04T01:00:00Z,26.5255,-82.0032,2.22,7.28,1111122 
SCCF RECON,ioos:station:SCCF:13:1,2009-03-04T02:00:00Z,26.5255,-82.0032,2.219,7.18,1111122 
SCCF RECON,ioos:station:SCCF:13:1,2009-03-04T03:00:00Z,26.5255,-82.0032,2.2,7.03,1111122 
SCCF RECON,ioos:station:SCCF:13:1,2009-03-04T04:00:00Z,26.5255,-82.0032,2.19,7.12,1111122 
SCCF RECON,ioos:station:SCCF:13:1,2009-03-04T05:00:00Z,26.5255,-82.0032,2.17,7.29,1111122 
SCCF RECON,ioos:station:SCCF:13:1,2009-03-04T06:00:00Z,26.5255,-82.0032,2.14,7.38,1111122 
SCCF RECON,ioos:station:SCCF:13:1,2009-03-04T07:00:00Z,26.5255,-82.0032,2.1,7.39,1111122 
SCCF RECON,ioos:station:SCCF:13:1,2009-03-04T08:00:00Z,26.5255,-82.0032,2.08,7.33,1111122 
SCCF RECON,ioos:station:SCCF:13:1,2009-03-04T09:00:00Z,26.5255,-82.0032,2.06,7.29,1111122 
SCCF RECON,ioos:station:SCCF:13:1,2009-03-04T10:00:00Z,26.5255,-82.0032,2.04,7.27,1111122 
SCCF RECON,ioos:station:SCCF:13:1,2009-03-04T11:00:00Z,26.5255,-82.0032,2.03,7.24,1111122 
SCCF RECON,ioos:station:SCCF:13:1,2009-03-04T12:00:00Z,26.5255,-82.0032,2.02,7.3,1111122 
SCCF RECON,ioos:station:SCCF:13:1,2009-03-04T13:00:00Z,26.5255,-82.0032,2.02,6.98,1111122 
SCCF RECON,ioos:station:SCCF:13:1,2009-03-04T14:00:00Z,26.5255,-82.0032,2.02,6.99,1111122 
SCCF RECON,ioos:station:SCCF:13:1,2009-03-04T15:00:00Z,26.5255,-82.0032,2.02,7.07,1111122 
SCCF RECON,ioos:station:SCCF:13:1,2009-03-04T16:00:00Z,26.5255,-82.0032,2.04,7.12,1111122 
SCCF RECON,ioos:station:SCCF:13:1,2009-03-04T17:00:00Z,26.5255,-82.0032,2.06,7.13,1111122 
SCCF RECON,ioos:station:SCCF:13:1,2009-03-04T18:00:00Z,26.5255,-82.0032,2.07,7.1,1111122 
SCCF RECON,ioos:station:SCCF:13:1,2009-03-04T19:00:00Z,26.5255,-82.0032,2.11,7.35,1111122 
SCCF RECON,ioos:station:SCCF:13:1,2009-03-04T20:00:00Z,26.5255,-82.0032,2.13,7.42,1111122 
SCCF RECON,ioos:station:SCCF:13:1,2009-03-04T21:00:00Z,26.5255,-82.0032,2.17,7.52,1111122 
SCCF RECON,ioos:station:SCCF:13:1,2009-03-04T22:00:00Z,26.5255,-82.0032,2.19,7.57,1111122 
SCCF RECON,ioos:station:SCCF:13:1,2009-03-04T23:00:00Z,26.5255,-82.0032,2.22,7.51,1111122 
SCCF RECON,ioos:station:SCCF:13:1,2009-03-05T00:00:00Z,26.5255,-82.0032,2.25,7.39,1111122 
SCCF RECON,ioos:station:SCCF:13:1,2009-03-05T01:00:00Z,26.5255,-82.0032,2.28,7.36,1111122 
SCCF RECON,ioos:station:SCCF:13:1,2009-03-05T02:00:00Z,26.5255,-82.0032,2.29,7.3,1111122 
SCCF RECON,ioos:station:SCCF:13:1,2009-03-05T03:00:00Z,26.5255,-82.0032,2.29,7.26,1111122 
SCCF RECON,ioos:station:SCCF:13:1,2009-03-05T04:00:00Z,26.5255,-82.0032,2.27,7.08,1111122 
SCCF RECON,ioos:station:SCCF:13:1,2009-03-05T05:00:00Z,26.5255,-82.0032,2.26,7.27,1111122 
SCCF RECON,ioos:station:SCCF:13:1,2009-03-05T06:00:00Z,26.5255,-82.0032,2.24,7.34,1111122 
SCCF RECON,ioos:station:SCCF:13:1,2009-03-05T07:00:00Z,26.5255,-82.0032,2.21,7.41,1111122 
SCCF RECON,ioos:station:SCCF:13:1,2009-03-05T08:00:00Z,26.5255,-82.0032,2.18,7.4,1111122 
SCCF RECON,ioos:station:SCCF:13:1,2009-03-05T09:00:00Z,26.5255,-82.0032,2.14,7.37,1111122 
SCCF RECON,ioos:station:SCCF:13:1,2009-03-05T10:00:00Z,26.5255,-82.0032,2.12,7.36,1111122 
SCCF RECON,ioos:station:SCCF:13:1,2009-03-05T11:00:00Z,26.5255,-82.0032,2.11,7.38,1111122 
SCCF RECON,ioos:station:SCCF:13:1,2009-03-05T12:00:00Z,26.5255,-82.0032,2.11,7.31,1111122 
SCCF RECON,ioos:station:SCCF:13:1,2009-03-05T13:00:00Z,26.5255,-82.0032,2.1,7.01,1111122 
SCCF RECON,ioos:station:SCCF:13:1,2009-03-05T14:00:00Z,26.5255,-82.0032,2.11,7.13,1111122 
SCCF RECON,ioos:station:SCCF:13:1,2009-03-05T15:00:00Z,26.5255,-82.0032,2.14,7.22,1111122 
SCCF RECON,ioos:station:SCCF:13:1,2009-03-05T16:00:00Z,26.5255,-82.0032,2.17,7.18,1111122 
SCCF RECON,ioos:station:SCCF:13:1,2009-03-05T17:00:00Z,26.5255,-82.0032,2.19,7.15,1111122 
SCCF RECON,ioos:station:SCCF:13:1,2009-03-05T18:00:00Z,26.5255,-82.0032,2.2,7.29,1111122 
SCCF RECON,ioos:station:SCCF:13:1,2009-03-05T19:00:00Z,26.5255,-82.0032,2.23,7.48,1111122 
SCCF RECON,ioos:station:SCCF:13:1,2009-03-05T20:00:00Z,26.5255,-82.0032,2.25,7.54,1111122 
SCCF RECON,ioos:station:SCCF:13:1,2009-03-05T21:00:00Z,26.5255,-82.0032,2.27,7.6,1111122 
SCCF RECON,ioos:station:SCCF:13:1,2009-03-05T22:00:00Z,26.5255,-82.0032,2.27,7.5,1111122 
SCCF RECON,ioos:station:SCCF:13:1,2009-03-05T23:00:00Z,26.5255,-82.0032,2.28,7.48,1111122 
SCCF RECON,ioos:station:SCCF:13:1,2009-03-06T00:00:00Z,26.5255,-82.0032,2.32,7.53,1111122 
SCCF RECON,ioos:station:SCCF:13:1,2009-03-06T01:00:00Z,26.5255,-82.0032,2.35,7.47,1111122 
SCCF RECON,ioos:station:SCCF:13:1,2009-03-06T02:00:00Z,26.5255,-82.0032,2.37,7.38,1111122 
SCCF RECON,ioos:station:SCCF:13:1,2009-03-06T03:00:00Z,26.5255,-82.0032,2.38,7.32,1111122 
SCCF RECON,ioos:station:SCCF:13:1,2009-03-06T04:00:00Z,26.5255,-82.0032,2.38,7.23,1111122 
SCCF RECON,ioos:station:SCCF:13:1,2009-03-06T05:00:00Z,26.5255,-82.0032,2.37,7.16,1111122 
SCCF RECON,ioos:station:SCCF:13:1,2009-03-06T06:00:00Z,26.5255,-82.0032,2.35,7.25,1111122 
SCCF RECON,ioos:station:SCCF:13:1,2009-03-06T07:00:00Z,26.5255,-82.0032,2.33,7.21,1111122 
SCCF RECON,ioos:station:SCCF:13:1,2009-03-06T08:00:00Z,26.5255,-82.0032,2.3,7.29,1111122 
SCCF RECON,ioos:station:SCCF:13:1,2009-03-06T09:00:00Z,26.5255,-82.0032,2.26,7.27,1111122 
SCCF RECON,ioos:station:SCCF:13:1,2009-03-06T10:00:00Z,26.5255,-82.0032,2.22,7.22,1111122 
SCCF RECON,ioos:station:SCCF:13:1,2009-03-06T11:00:00Z,26.5255,-82.0032,2.19,7.23,1111122 
SCCF RECON,ioos:station:SCCF:13:1,2009-03-06T12:00:00Z,26.5255,-82.0032,2.18,7.23,1111122 
SCCF RECON,ioos:station:SCCF:13:1,2009-03-06T13:00:00Z,26.5255,-82.0032,2.18,7.2,1111122 
SCCF RECON,ioos:station:SCCF:13:1,2009-03-06T14:00:00Z,26.5255,-82.0032,2.18,6.79,1111122 
SCCF RECON,ioos:station:SCCF:13:1,2009-03-06T15:00:00Z,26.5255,-82.0032,2.182,7.18,1111122 
SCCF RECON,ioos:station:SCCF:13:1,2009-03-06T16:00:00Z,26.5255,-82.0032,2.22,7.12,1111122 
SCCF RECON,ioos:station:SCCF:13:1,2009-03-06T17:00:00Z,26.5255,-82.0032,2.24,7.09,1111122 
SCCF RECON,ioos:station:SCCF:13:1,2009-03-06T18:00:00Z,26.5255,-82.0032,2.26,7.15,1111122 
SCCF RECON,ioos:station:SCCF:13:1,2009-03-06T19:00:00Z,26.5255,-82.0032,2.27,7.31,1111122 
SCCF RECON,ioos:station:SCCF:13:1,2009-03-06T20:00:00Z,26.5255,-82.0032,2.28,7.36,1111122 
SCCF RECON,ioos:station:SCCF:13:1,2009-03-06T21:00:00Z,26.5255,-82.0032,2.29,7.52,1111122 
SCCF RECON,ioos:station:SCCF:13:1,2009-03-06T22:00:00Z,26.5255,-82.0032,2.31,7.39,1111122 
SCCF RECON,ioos:station:SCCF:13:1,2009-03-06T23:00:00Z,26.5255,-82.0032,2.32,7.39,1111122 
SCCF RECON,ioos:station:SCCF:13:1,2009-03-07T00:00:00Z,26.5255,-82.0032,2.33,7.24,1111122 
SCCF RECON,ioos:station:SCCF:13:1,2009-03-07T01:00:00Z,26.5255,-82.0032,2.33,7.18,1111122 
SCCF RECON,ioos:station:SCCF:13:1,2009-03-07T02:00:00Z,26.5255,-82.0032,2.35,7.22,1111122 
SCCF RECON,ioos:station:SCCF:13:1,2009-03-07T03:00:00Z,26.5255,-82.0032,2.38,7.34,1111122 
SCCF RECON,ioos:station:SCCF:13:1,2009-03-07T04:00:00Z,26.5255,-82.0032,2.4,7.33,1111122 
SCCF RECON,ioos:station:SCCF:13:1,2009-03-07T05:00:00Z,26.5255,-82.0032,2.41,7.25,1111122 
SCCF RECON,ioos:station:SCCF:13:1,2009-03-07T06:00:00Z,26.5255,-82.0032,2.4,7.08,1111122 
SCCF RECON,ioos:station:SCCF:13:1,2009-03-07T07:00:00Z,26.5255,-82.0032,2.38,7.03,1111122 
SCCF RECON,ioos:station:SCCF:13:1,2009-03-07T08:00:00Z,26.5255,-82.0032,2.35,7.02,1111122 
SCCF RECON,ioos:station:SCCF:13:1,2009-03-07T09:00:00Z,26.5255,-82.0032,2.31,7.09,1111122 
SCCF RECON,ioos:station:SCCF:13:1,2009-03-07T10:00:00Z,26.5255,-82.0032,2.27,7.07,1111122 
SCCF RECON,ioos:station:SCCF:13:1,2009-03-07T11:00:00Z,26.5255,-82.0032,2.23,7.04,1111122 
SCCF RECON,ioos:station:SCCF:13:1,2009-03-07T12:00:00Z,26.5255,-82.0032,2.2,7.02,1111122 
SCCF RECON,ioos:station:SCCF:13:1,2009-03-07T13:00:00Z,26.5255,-82.0032,2.19,7.02,1111122 
SCCF RECON,ioos:station:SCCF:13:1,2009-03-07T14:00:00Z,26.5255,-82.0032,2.19,7.02,1111122 
SCCF RECON,ioos:station:SCCF:13:1,2009-03-07T15:00:00Z,26.5255,-82.0032,2.19,6.87,1111122 
SCCF RECON,ioos:station:SCCF:13:1,2009-03-07T16:00:00Z,26.5255,-82.0032,2.22,7.21,1111122 
SCCF RECON,ioos:station:SCCF:13:1,2009-03-07T17:00:00Z,26.5255,-82.0032,2.24,7.04,1111122 
SCCF RECON,ioos:station:SCCF:13:1,2009-03-07T18:00:00Z,26.5255,-82.0032,2.26,7.04,1111122 
SCCF RECON,ioos:station:SCCF:13:1,2009-03-07T19:00:00Z,26.5255,-82.0032,2.27,7.22,1111122 
SCCF RECON,ioos:station:SCCF:13:1,2009-03-07T20:00:00Z,26.5255,-82.0032,2.29,7.38,1111122 
SCCF RECON,ioos:station:SCCF:13:1,2009-03-07T21:00:00Z,26.5255,-82.0032,2.29,7.34,1111122 
SCCF RECON,ioos:station:SCCF:13:1,2009-03-07T22:00:00Z,26.5255,-82.0032,2.29,6.97,1111122 
SCCF RECON,ioos:station:SCCF:13:1,2009-03-07T23:00:00Z,26.5255,-82.0032,2.3,6.8,1111122 
SCCF RECON,ioos:station:SCCF:13:1,2009-03-08T00:00:00Z,26.5255,-82.0032,2.33,6.21,1111122 
SCCF RECON,ioos:station:SCCF:13:1,2009-03-08T01:00:00Z,26.5255,-82.0032,2.34,6.19,1111122 
SCCF RECON,ioos:station:SCCF:13:1,2009-03-08T02:00:00Z,26.5255,-82.0032,2.34,6.03,1111122 
SCCF RECON,ioos:station:SCCF:13:1,2009-03-08T03:00:00Z,26.5255,-82.0032,2.36,6.42,1111122 
SCCF RECON,ioos:station:SCCF:13:1,2009-03-08T04:00:00Z,26.5255,-82.0032,2.41,7.38,1111122 
SCCF RECON,ioos:station:SCCF:13:1,2009-03-08T05:00:00Z,26.5255,-82.0032,2.43,7.29,1111122 
SCCF RECON,ioos:station:SCCF:13:1,2009-03-08T06:00:00Z,26.5255,-82.0032,2.44,7.21,1111122 
SCCF RECON,ioos:station:SCCF:13:1,2009-03-08T07:00:00Z,26.5255,-82.0032,2.43,7.15,1111122 
SCCF RECON,ioos:station:SCCF:13:1,2009-03-08T08:00:00Z,26.5255,-82.0032,2.41,6.9,1111122 
SCCF RECON,ioos:station:SCCF:13:1,2009-03-08T09:00:00Z,26.5255,-82.0032,2.38,6.89,1111122 
SCCF RECON,ioos:station:SCCF:13:1,2009-03-08T10:00:00Z,26.5255,-82.0032,2.34,6.92,1111122 
SCCF RECON,ioos:station:SCCF:13:1,2009-03-08T11:00:00Z,26.5255,-82.0032,2.31,6.92,1111122 
SCCF RECON,ioos:station:SCCF:13:1,2009-03-08T12:00:00Z,26.5255,-82.0032,2.27,6.91,1111122 
SCCF RECON,ioos:station:SCCF:13:1,2009-03-08T13:00:00Z,26.5255,-82.0032,2.24,6.92,1111122 
SCCF RECON,ioos:station:SCCF:13:1,2009-03-08T14:00:00Z,26.5255,-82.0032,2.24,6.96,1111122 
SCCF RECON,ioos:station:SCCF:13:1,2009-03-08T15:00:00Z,26.5255,-82.0032,2.24,6.82,1111122 
SCCF RECON,ioos:station:SCCF:13:1,2009-03-08T16:00:00Z,26.5255,-82.0032,2.25,6.94,1111122 
SCCF RECON,ioos:station:SCCF:13:1,2009-03-08T17:00:00Z,26.5255,-82.0032,2.279,7.01,1111122 
SCCF RECON,ioos:station:SCCF:13:1,2009-03-08T18:00:00Z,26.5255,-82.0032,2.29,6.93,1111122 
SCCF RECON,ioos:station:SCCF:13:1,2009-03-08T19:00:00Z,26.5255,-82.0032,2.31,7.08,1111122 
SCCF RECON,ioos:station:SCCF:13:1,2009-03-08T20:00:00Z,26.5255,-82.0032,2.32,7.17,1111122 
SCCF RECON,ioos:station:SCCF:13:1,2009-03-08T21:00:00Z,26.5255,-82.0032,2.32,7.24,1111122 
SCCF RECON,ioos:station:SCCF:13:1,2009-03-08T22:00:00Z,26.5255,-82.0032,2.32,7.36,1111122 
SCCF RECON,ioos:station:SCCF:13:1,2009-03-08T23:00:00Z,26.5255,-82.0032,2.31,7.32,1111122 
SCCF RECON,ioos:station:SCCF:13:1,2009-03-09T00:00:00Z,26.5255,-82.0032,2.32,7.24,1111122 
SCCF RECON,ioos:station:SCCF:13:1,2009-03-09T01:00:00Z,26.5255,-82.0032,2.32,6.98,1111122 
SCCF RECON,ioos:station:SCCF:13:1,2009-03-09T02:00:00Z,26.5255,-82.0032,2.32,7.01,1111122 
SCCF RECON,ioos:station:SCCF:13:1,2009-03-09T03:00:00Z,26.5255,-82.0032,2.34,6.98,1111122 
SCCF RECON,ioos:station:SCCF:13:1,2009-03-09T04:00:00Z,26.5255,-82.0032,2.35,7.06,1111122 
SCCF RECON,ioos:station:SCCF:13:1,2009-03-09T05:00:00Z,26.5255,-82.0032,2.39,7.26,1111122 
SCCF RECON,ioos:station:SCCF:13:1,2009-03-09T06:00:00Z,26.5255,-82.0032,2.42,7.1,1111122 
SCCF RECON,ioos:station:SCCF:13:1,2009-03-09T07:00:00Z,26.5255,-82.0032,2.42,6.97,1111122 
SCCF RECON,ioos:station:SCCF:13:1,2009-03-09T08:00:00Z,26.5255,-82.0032,2.42,6.88,1111122 
SCCF RECON,ioos:station:SCCF:13:1,2009-03-09T09:00:00Z,26.5255,-82.0032,2.4,6.69,1111122 
SCCF RECON,ioos:station:SCCF:13:1,2009-03-09T10:00:00Z,26.5255,-82.0032,2.36,6.7,1111122 
SCCF RECON,ioos:station:SCCF:13:1,2009-03-09T11:00:00Z,26.5255,-82.0032,2.32,6.69,1111122 
SCCF RECON,ioos:station:SCCF:13:1,2009-03-09T12:00:00Z,26.5255,-82.0032,2.28,6.66,1111122 
SCCF RECON,ioos:station:SCCF:13:1,2009-03-09T13:00:00Z,26.5255,-82.0032,2.26,6.67,1111122 
SCCF RECON,ioos:station:SCCF:13:1,2009-03-09T14:00:00Z,26.5255,-82.0032,2.25,6.75,1111122 
SCCF RECON,ioos:station:SCCF:13:1,2009-03-09T15:00:00Z,26.5255,-82.0032,2.25,6.75,1111122 
SCCF RECON,ioos:station:SCCF:13:1,2009-03-09T16:00:00Z,26.5255,-82.0032,2.26,6.67,1111122 
SCCF RECON,ioos:station:SCCF:13:1,2009-03-09T17:00:00Z,26.5255,-82.0032,2.29,6.8,1111122 
SCCF RECON,ioos:station:SCCF:13:1,2009-03-09T18:00:00Z,26.5255,-82.0032,2.32,6.8,1111122 
SCCF RECON,ioos:station:SCCF:13:1,2009-03-09T19:00:00Z,26.5255,-82.0032,2.34,7.05,1111122 
SCCF RECON,ioos:station:SCCF:13:1,2009-03-09T20:00:00Z,26.5255,-82.0032,2.35,7.21,1111122 
SCCF RECON,ioos:station:SCCF:13:1,2009-03-09T21:00:00Z,26.5255,-82.0032,2.35,7.16,1111122 
SCCF RECON,ioos:station:SCCF:13:1,2009-03-09T22:00:00Z,26.5255,-82.0032,2.34,7.22,1111122 
SCCF RECON,ioos:station:SCCF:13:1,2009-03-09T23:00:00Z,26.5255,-82.0032,2.32,7.15,1111122 
SCCF RECON,ioos:station:SCCF:13:1,2009-03-10T00:00:00Z,26.5255,-82.0032,2.3,6.95,1111122 
SCCF RECON,ioos:station:SCCF:13:1,2009-03-10T01:00:00Z,26.5255,-82.0032,2.28,6.9,1111122 
SCCF RECON,ioos:station:SCCF:13:1,2009-03-10T02:00:00Z,26.5255,-82.0032,2.28,6.65,1111122 
SCCF RECON,ioos:station:SCCF:13:1,2009-03-10T03:00:00Z,26.5255,-82.0032,2.3,6.67,1111122 
SCCF RECON,ioos:station:SCCF:13:1,2009-03-10T04:00:00Z,26.5255,-82.0032,2.32,6.85,1111122 
SCCF RECON,ioos:station:SCCF:13:1,2009-03-10T05:00:00Z,26.5255,-82.0032,2.35,6.72,1111122 
SCCF RECON,ioos:station:SCCF:13:1,2009-03-10T06:00:00Z,26.5255,-82.0032,2.37,6.81,1111122 
SCCF RECON,ioos:station:SCCF:13:1,2009-03-10T07:00:00Z,26.5255,-82.0032,2.39,6.75,1111122 
SCCF RECON,ioos:station:SCCF:13:1,2009-03-10T08:00:00Z,26.5255,-82.0032,2.39,6.72,1111122 
SCCF RECON,ioos:station:SCCF:13:1,2009-03-10T09:00:00Z,26.5255,-82.0032,2.38,6.58,1111122 
SCCF RECON,ioos:station:SCCF:13:1,2009-03-10T10:00:00Z,26.5255,-82.0032,2.36,6.4,1111122 
SCCF RECON,ioos:station:SCCF:13:1,2009-03-10T11:00:00Z,26.5255,-82.0032,2.32,6.36,1111122 
SCCF RECON,ioos:station:SCCF:13:1,2009-03-10T12:00:00Z,26.5255,-82.0032,2.29,6.41,1111122 
SCCF RECON,ioos:station:SCCF:13:1,2009-03-10T13:00:00Z,26.5255,-82.0032,2.25,6.43,1111122 
SCCF RECON,ioos:station:SCCF:13:1,2009-03-10T14:00:00Z,26.5255,-82.0032,2.23,6.54,1111122 
SCCF RECON,ioos:station:SCCF:13:1,2009-03-10T15:00:00Z,26.5255,-82.0032,2.23,6.66,1111122 
SCCF RECON,ioos:station:SCCF:13:1,2009-03-10T16:00:00Z,26.5255,-82.0032,2.244,6.45,1111122 
SCCF RECON,ioos:station:SCCF:13:1,2009-03-10T17:00:00Z,26.5255,-82.0032,2.27,6.67,1111122 
SCCF RECON,ioos:station:SCCF:13:1,2009-03-10T18:00:00Z,26.5255,-82.0032,2.31,6.61,1111122 
SCCF RECON,ioos:station:SCCF:13:1,2009-03-10T19:00:00Z,26.5255,-82.0032,2.33,6.94,1111122 
SCCF RECON,ioos:station:SCCF:13:1,2009-03-10T20:00:00Z,26.5255,-82.0032,2.35,7.14,1111122 
SCCF RECON,ioos:station:SCCF:13:1,2009-03-10T21:00:00Z,26.5255,-82.0032,2.34,7.06,1111122 
SCCF RECON,ioos:station:SCCF:13:1,2009-03-10T22:00:00Z,26.5255,-82.0032,2.33,7.15,1111122 
SCCF RECON,ioos:station:SCCF:13:1,2009-03-10T23:00:00Z,26.5255,-82.0032,2.31,7.02,1111122 
SCCF RECON,ioos:station:SCCF:13:1,2009-03-11T00:00:00Z,26.5255,-82.0032,2.28,6.77,1111122 
SCCF RECON,ioos:station:SCCF:13:1,2009-03-11T01:00:00Z,26.5255,-82.0032,2.24,6.76,1111122 
SCCF RECON,ioos:station:SCCF:13:1,2009-03-11T02:00:00Z,26.5255,-82.0032,2.223,6.75,1111122 
SCCF RECON,ioos:station:SCCF:13:1,2009-03-11T03:00:00Z,26.5255,-82.0032,2.23,6.16,1111122 
SCCF RECON,ioos:station:SCCF:13:1,2009-03-11T04:00:00Z,26.5255,-82.0032,2.26,6.51,1111122 
SCCF RECON,ioos:station:SCCF:13:1,2009-03-11T05:00:00Z,26.5255,-82.0032,2.29,6.62,1111122 
SCCF RECON,ioos:station:SCCF:13:1,2009-03-11T06:00:00Z,26.5255,-82.0032,2.32,6.62,1111122 
SCCF RECON,ioos:station:SCCF:13:1,2009-03-11T07:00:00Z,26.5255,-82.0032,2.34,6.58,1111122 
SCCF RECON,ioos:station:SCCF:13:1,2009-03-11T08:00:00Z,26.5255,-82.0032,2.37,6.52,1111122 
SCCF RECON,ioos:station:SCCF:13:1,2009-03-11T09:00:00Z,26.5255,-82.0032,2.37,6.5,1111122 
SCCF RECON,ioos:station:SCCF:13:1,2009-03-11T10:00:00Z,26.5255,-82.0032,2.36,6.35,1111122 
SCCF RECON,ioos:station:SCCF:13:1,2009-03-11T11:00:00Z,26.5255,-82.0032,2.34,6.13,1111122 
SCCF RECON,ioos:station:SCCF:13:1,2009-03-11T12:00:00Z,26.5255,-82.0032,2.3,6.13,1111122 
SCCF RECON,ioos:station:SCCF:13:1,2009-03-11T13:00:00Z,26.5255,-82.0032,2.28,6.16,1111122 
SCCF RECON,ioos:station:SCCF:13:1,2009-03-11T14:00:00Z,26.5255,-82.0032,2.26,6.3,1111122 
SCCF RECON,ioos:station:SCCF:13:1,2009-03-11T15:00:00Z,26.5255,-82.0032,2.27,6.45,1111122 
SCCF RECON,ioos:station:SCCF:13:1,2009-03-11T16:00:00Z,26.5255,-82.0032,2.285,6.2,1111122 
SCCF RECON,ioos:station:SCCF:13:1,2009-03-11T17:00:00Z,26.5255,-82.0032,2.31,6.39,1111122 
SCCF RECON,ioos:station:SCCF:13:1,2009-03-11T18:00:00Z,26.5255,-82.0032,2.33,6.4,1111122 
SCCF RECON,ioos:station:SCCF:13:1,2009-03-11T19:00:00Z,26.5255,-82.0032,2.36,6.85,1111122 
SCCF RECON,ioos:station:SCCF:13:1,2009-03-11T20:00:00Z,26.5255,-82.0032,2.38,7.01,1111122 
SCCF RECON,ioos:station:SCCF:13:1,2009-03-11T21:00:00Z,26.5255,-82.0032,2.379,6.93,1111122 
SCCF RECON,ioos:station:SCCF:13:1,2009-03-11T22:00:00Z,26.5255,-82.0032,2.37,6.99,1111122 